Regional Weather Roundup
Issued by NWS Charleston, SC

Current Version | Previous Version | Graphics & Text | Print | Product List | Glossary On
Versions: 1 2 3 4 5 6 7 8 9 10 11 12 13 14 15 16 17 18 19 20 21 22 23 24 25 26 27 28 29 30 31 32 33 34 35 36 37 38 39 40 41 42 43 44 45 46 47 48 49 50
000
ASUS42 KCHS 220612
RWRCHS

REGIONAL WEATHER ROUNDUP
NATIONAL WEATHER SERVICE CHARLESTON SC
200 AM EDT SAT JUL 22 2017

NOTE: "FAIR" INDICATES FEW OR NO CLOUDS BELOW 12,000 FEET WITH NO
SIGNIFICANT WEATHER AND/OR OBSTRUCTIONS TO VISIBILITY.

NOT ALL STATIONS ARE QUALITY CONTROLLED. USE DATA WITH CAUTION...
ESPECIALLY DEWPOINT OBSERVATIONS.

SCZ027-030-031-034>040-042>050-220700-
...SOUTHEAST SOUTH CAROLINA...

CITY           SKY/WX    TMP DP  RH WIND       PRES   REMARKS
N CHARLESTON   PTCLDY    77  74  90 S6        30.01F
6HR MIN TEMP:  77; 6HR MAX TEMP:  83;

WATERFRONT PRK   N/A     81  78  91 VRB3      30.00F
JOHNS ISLAND   FAIR      81  77  89 S5        30.02F
PINOPOLIS        N/A     79  77  94 CALM      29.95F
MONCKS CORNER  FAIR      75  73  94 S3        30.00F
SUMMERVILLE    FAIR      77  73  88 CALM      30.02F
BEAUFORT MCAS  CLEAR     80  78  94 S5        30.00F
6HR MIN TEMP:  80; 6HR MAX TEMP:  86;

BEAUFORT ARPT  FAIR      79  75  89 S3        30.00F
HILTON HEAD IS CLEAR     77  77 100 CALM      30.02F
WALTERBORO     CLEAR     75  73  94 S5        30.01F
ALLENDALE      NOT AVBL

...SOUTHERN MIDLANDS AND PEE DEE...

CITY           SKY/WX    TMP DP  RH WIND       PRES   REMARKS
GEORGETOWN     FAIR      73  73 100 SW3       30.03S
KINGSTREE      FAIR      73  72  94 CALM      30.01F
ORANGEBURG     CLEAR     75  73  93 S5        30.01F
6HR MIN TEMP:  75; 6HR MAX TEMP:  87;

BARNWELL       FAIR      77  75  94 CALM      30.01F
AIKEN          FAIR      73  72  94 SW6       30.04F
MANNING        FAIR      79  77  94 W25       30.01F
COLUMBIA       PTCLDY    78  71  79 W5        29.98F
6HR MIN TEMP:  78; 6HR MAX TEMP:  87;

SUMTER         PTCLDY    78  73  83 S3        29.98F
6HR MIN TEMP:  78; 6HR MAX TEMP:  86;

FLORENCE       CLEAR     78  75  90 SW5       30.00F
6HR MIN TEMP:  78; 6HR MAX TEMP:  87;

MYRTLE BEACH   CLEAR     79  76  90 SW5       30.02F
N MYRTLE BEACH CLEAR     79  77  94 SW9       30.00F
6HR MIN TEMP:  79; 6HR MAX TEMP:  82;


$$

GAZ063-065-086>088-099>101-113>116-118-119-134>141-150-220700-
...SOUTHEAST GEORGIA...

CITY           SKY/WX    TMP DP  RH WIND       PRES   REMARKS
SAVANNAH ARPT  CLEAR    N/A N/A N/A CALM      30.02F
HUNTER AAF     CLEAR     76  73  89 N3        29.98F
6HR MIN TEMP:  76; 6HR MAX TEMP:  84;

FORT STEWART   CLEAR     74  72  92 CALM      30.00S
6HR MIN TEMP:  74; 6HR MAX TEMP:  85;

STATESBORO     CLEAR     74  74 100 CALM      30.01F
SYLVANIA       CLEAR     74  74 100 CALM      30.02F
CLAXTON        FAIR      73  73  98 CALM      30.02F FOG

...CSRA...CENTRAL AND FAR SOUTHEAST GEORGIA...

CITY           SKY/WX    TMP DP  RH WIND       PRES   REMARKS
THOMSON        CLEAR     72  69  90 CALM      30.04F
AUGUSTA-BUSH   CLEAR     75  72  90 CALM      30.00F
6HR MIN TEMP:  74; 6HR MAX TEMP:  81; 6HR PCP: TRACE;

AUGUSTA-DANIEL CLEAR     78  68  71 S5        30.01F
SWAINSBORO     FAIR      72  72 100 CALM      30.02F
VIDALIA        CLEAR     73  72  94 CALM      30.03F
EASTMAN        FAIR      74  74 100 CALM      30.04F
HAZLEHURST     FAIR      74  74 100 CALM      30.02S
ALMA           CLEAR     73  72  96 CALM      30.03S
6HR MIN TEMP:  73; 6HR MAX TEMP:  75; 6HR PCP:  0.02;

WAYCROSS       CLEAR     76  76 100 CALM      30.03F
JESUP          NOT AVBL
BAXLEY         FAIR      73  73 100 CALM      30.02F
BRUNSWICK      CLEAR     73  73 100 CALM      30.03F
SAINT SIMONS   CLEAR     78  74  87 CALM      30.02F
6HR MIN TEMP:  78; 6HR MAX TEMP:  84;


$$

SCZ027-028-034-036>038-045-046-048>050-GAZ119-141-220700-
...LAKE AND SUPPLEMENTAL COASTAL OBSERVATIONS...

STATION/POSITION TIME  TEMP    WIND        PRES    WAVE   SWELL
                       AIR SEA DIR/SP/G            HT/PER HT/PER/DIR
                 (UTC) (F)     (DEG/KT/KT) (MB)    (FT/S) (FT/S/D)
WINYAH BAY       0445   80     230/  4     1016.0
LAKE MURRAY      0520   82     240/ 10/ 12 1014.9F
ACE BASIN NERRS  0445   78        CALM     1017.0
FORT PULASKI     0548      86  280/  4/  5 1016.5F
SAPELO ISLAND    0500   76        CALM     1017.0

$$

ANZ835-935-AMZ111-154-330-350-352-354-370-450-454-472-220700-
...C-MAN AND BUOY OBSERVATIONS...

STATION/POSITION TIME  TEMP    WIND        PRES    WAVE   SWELL
                       AIR SEA DIR/SP/G            HT/PER HT/PER/DIR
                 (UTC) (F)     (DEG/KT/KT) (MB)    (FT/S) (FT/S/D)
BUOY 41004       0550   83 84  210/ 14/ 16 1016.1F   3/10   2/120/10
BUOY 41008       0450   81 82  170/ 10/ 12 1016.8    2/ 9   2/120/ 9
FOLLY BEACH CMAN 0500   82     210/ 13/ 15 1017.4F
CAPERS NEARSHORE 0508   80 83  230/ 14/ 17 1016.5F
FRIPP NEARSHORE  0508   83 85  210/ 14/ 16 1016.7F


STATION/POSITION TIME  TEMP    WIND        PRES    WAVE   SWELL
                       AIR SEA DIR/SP/G            HT/PER HT/PER/DIR
                 (UTC) (F)     (DEG/KT/KT) (MB)    (FT/S) (FT/S/D)
5E ST. MARYS GA  0530      82                N/A     2/ 8
FRYING PAN BUOY  0550   83 83  220/ 16/ 17 1016.3F   3/ 4   2/130/ 8
BUOY 41025       0550   83 84  240/ 19/ 21 1015.4F   5/ 5   2/140/ 9
CAPE LOOKOUT NC  0500   81     240/ 11/ 15 1015.9R
BUOY 41002       0450   82 83  220/ 14/ 17 1018.5    4/10   3/100/10
BUOY 41010       0550   84 85  180/  8/ 10 1017.8F   3/ 9   3/ 90/ 9
ST AUGUSTINE FL  0600   76 82  230/  8/ 10 1017.3F


$$




USA.gov is the U.S. government's official web portal to all federal, state and local government web resources and services.